• In Hungary
  • List of Countries
  • For 7 days
  • Water Temperature
  • Satellite Maps
  • Weather Map
  • News
  • Weather Widgets
  • user-avatar
    Login

    Hourly Weather San Pedro La Laguna

    Today, 17 October, Tuesday

    Time Temperature Precipitation Wind Pressure Humidity
    00:00 +13°C° 0 mm 1 mps 593 mmHg 83%
    01:00 +13°C° 0 mm 1 mps 593 mmHg 82%
    02:00 +13°C° 0 mm 1 mps 593 mmHg 81%
    03:00 +13°C° 0 mm 1 mps 592 mmHg 80%
    04:00 +13°C° 0 mm 1 mps 592 mmHg 79%
    05:00 +13°C° 0 mm 1 mps 593 mmHg 79%
    06:00 +13°C° 0 mm 1 mps 593 mmHg 78%
    07:00 +15°C° 0 mm 1 mps 594 mmHg 73%
    08:00 +17°C° 0 mm 2 mps 595 mmHg 68%
    09:00 +19°C° 0 mm 2 mps 597 mmHg 62%
    10:00 +20°C° 0 mm 2 mps 597 mmHg 61%
    11:00 +21°C° 0 mm 2 mps 597 mmHg 59%
    12:00 +23°C° 0 mm 2 mps 597 mmHg 57%
    13:00 +23°C° 0.8 mm 2 mps 596 mmHg 62%
    14:00 +21°C° 0.8 mm 2 mps 595 mmHg 67%
    15:00 +20°C° 0.8 mm 2 mps 594 mmHg 73%
    16:00 +18°C° 0.6 mm 2 mps 594 mmHg 79%
    17:00 +18°C° 0.6 mm 1 mps 593 mmHg 86%
    18:00 +15°C° 0.6 mm 1 mps 593 mmHg 92%
    19:00 +15°C° 0 mm 1 mps 593 mmHg 93%
    20:00 +14°C° 0 mm 1 mps 594 mmHg 93%
    21:00 +13°C° 0 mm 1 mps 594 mmHg 93%
    22:00 +13°C° 0 mm 1 mps 594 mmHg 91%
    23:00 +13°C° 0 mm 1 mps 593 mmHg 89%

    Tomorrow, 18 October, Wednesday

    Time Temperature Precipitation Wind Pressure Humidity
    00:00 +13°C° 0 mm 1 mps 593 mmHg 86%
    01:00 +13°C° 0 mm 1 mps 593 mmHg 85%
    02:00 +13°C° 0 mm 1 mps 593 mmHg 83%
    03:00 +13°C° 0 mm 1 mps 592 mmHg 81%
    04:00 +13°C° 0 mm 1 mps 592 mmHg 81%
    05:00 +13°C° 0 mm 1 mps 592 mmHg 81%
    06:00 +13°C° 0 mm 1 mps 593 mmHg 80%
    07:00 +15°C° 0 mm 1 mps 594 mmHg 75%
    08:00 +18°C° 0 mm 1 mps 595 mmHg 69%
    09:00 +20°C° 0 mm 1 mps 597 mmHg 63%
    10:00 +20°C° 0 mm 2 mps 597 mmHg 61%
    11:00 +21°C° 0 mm 2 mps 597 mmHg 59%
    12:00 +23°C° 0 mm 2 mps 597 mmHg 57%
    13:00 +21°C° 2.1 mm 2 mps 596 mmHg 64%
    14:00 +20°C° 2.1 mm 2 mps 595 mmHg 70%
    15:00 +19°C° 2.1 mm 2 mps 594 mmHg 77%
    16:00 +18°C° 0.9 mm 2 mps 593 mmHg 82%
    17:00 +16°C° 0.9 mm 1 mps 593 mmHg 87%
    18:00 +15°C° 0.9 mm 1 mps 593 mmHg 92%
    19:00 +15°C° 0 mm 1 mps 593 mmHg 92%
    20:00 +14°C° 0 mm 1 mps 594 mmHg 92%
    21:00 +14°C° 0 mm 1 mps 594 mmHg 92%
    22:00 +13°C° 0 mm 1 mps 594 mmHg 91%
    23:00 +13°C° 0 mm 1 mps 593 mmHg 89%

    Day after tomorrow, 19 October, Thursday

    Time Temperature Precipitation Wind Pressure Humidity
    00:00 +13°C° 0 mm 1 mps 593 mmHg 88%
    01:00 +13°C° 0 mm 1 mps 593 mmHg 86%
    02:00 +13°C° 0 mm 1 mps 592 mmHg 85%
    03:00 +13°C° 0 mm 1 mps 592 mmHg 83%
    04:00 +13°C° 0 mm 1 mps 592 mmHg 82%
    05:00 +13°C° 0 mm 1 mps 592 mmHg 82%
    06:00 +13°C° 0 mm 1 mps 592 mmHg 81%
    07:00 +15°C° 0 mm 1 mps 594 mmHg 75%
    08:00 +18°C° 0 mm 1 mps 595 mmHg 69%
    09:00 +21°C° 0 mm 1 mps 596 mmHg 62%
    10:00 +20°C° 0.1 mm 2 mps 596 mmHg 62%
    11:00 +21°C° 0.1 mm 2 mps 596 mmHg 62%
    12:00 +21°C° 0.1 mm 2 mps 596 mmHg 62%
    13:00 +21°C° 1.4 mm 2 mps 595 mmHg 67%
    14:00 +20°C° 1.4 mm 2 mps 594 mmHg 72%
    15:00 +19°C° 1.4 mm 2 mps 593 mmHg 77%
    16:00 +18°C° 1 mm 2 mps 593 mmHg 82%
    17:00 +16°C° 1 mm 1 mps 593 mmHg 87%
    18:00 +15°C° 1 mm 1 mps 592 mmHg 92%
    19:00 +15°C° 0.4 mm 1 mps 593 mmHg 92%
    20:00 +14°C° 0.4 mm 1 mps 593 mmHg 91%
    21:00 +14°C° 0.4 mm 1 mps 593 mmHg 91%
    22:00 +13°C° 0 mm 1 mps 593 mmHg 90%
    23:00 +13°C° 0 mm 1 mps 593 mmHg 88%

    20 October, Friday

    Time Temperature Precipitation Wind Pressure Humidity
    00:00 +13°C° 0 mm 1 mps 593 mmHg 87%
    01:00 +13°C° 0 mm 1 mps 593 mmHg 85%
    02:00 +13°C° 0 mm 1 mps 592 mmHg 83%
    03:00 +13°C° 0 mm 1 mps 592 mmHg 82%
    04:00 +13°C° 0 mm 1 mps 592 mmHg 81%
    05:00 +13°C° 0 mm 1 mps 592 mmHg 81%
    06:00 +13°C° 0 mm 1 mps 593 mmHg 80%
    07:00 +15°C° 0 mm 1 mps 594 mmHg 76%
    08:00 +18°C° 0 mm 1 mps 595 mmHg 71%
    09:00 +20°C° 0 mm 1 mps 596 mmHg 67%
    10:00 +21°C° 0 mm 1 mps 596 mmHg 64%
    11:00 +20°C° 0 mm 2 mps 596 mmHg 62%
    12:00 +21°C° 0 mm 2 mps 595 mmHg 60%
    13:00 +20°C° 0.5 mm 2 mps 595 mmHg 65%
    14:00 +20°C° 0.5 mm 2 mps 594 mmHg 70%
    15:00 +19°C° 0.5 mm 2 mps 593 mmHg 75%
    16:00 +18°C° 0.8 mm 2 mps 593 mmHg 80%
    17:00 +16°C° 0.8 mm 1 mps 593 mmHg 86%
    18:00 +15°C° 0.8 mm 1 mps 592 mmHg 91%
    19:00 +14°C° 0.5 mm 1 mps 593 mmHg 91%
    20:00 +14°C° 0.5 mm 1 mps 593 mmHg 91%
    21:00 +13°C° 0.5 mm 1 mps 593 mmHg 91%
    22:00 +13°C° 0 mm 1 mps 593 mmHg 90%
    23:00 +13°C° 0 mm 1 mps 592 mmHg 89%

    21 October, Saturday

    Time Temperature Precipitation Wind Pressure Humidity
    00:00 +12°C° 0 mm 1 mps 592 mmHg 87%
    01:00 +12°C° 0 mm 1 mps 592 mmHg 85%
    02:00 +12°C° 0 mm 1 mps 592 mmHg 84%
    03:00 +12°C° 0 mm 1 mps 591 mmHg 82%
    04:00 +12°C° 0 mm 1 mps 592 mmHg 82%
    05:00 +13°C° 0 mm 1 mps 592 mmHg 81%
    06:00 +13°C° 0 mm 1 mps 592 mmHg 81%
    07:00 +15°C° 0 mm 1 mps 593 mmHg 76%
    08:00 +18°C° 0 mm 1 mps 594 mmHg 71%
    09:00 +20°C° 0 mm 1 mps 596 mmHg 65%
    10:00 +21°C° 0.1 mm 1 mps 595 mmHg 64%
    11:00 +21°C° 0.1 mm 2 mps 595 mmHg 62%
    12:00 +21°C° 0.1 mm 2 mps 595 mmHg 60%
    13:00 +21°C° 0.7 mm 2 mps 595 mmHg 65%
    14:00 +20°C° 0.7 mm 2 mps 594 mmHg 71%
    15:00 +19°C° 0.7 mm 2 mps 593 mmHg 76%
    16:00 +18°C° 0.7 mm 2 mps 593 mmHg 81%
    17:00 +16°C° 0.7 mm 1 mps 593 mmHg 87%
    18:00 +15°C° 0.7 mm 1 mps 592 mmHg 92%
    19:00 +14°C° 0.4 mm 1 mps 593 mmHg 92%
    20:00 +14°C° 0.4 mm 1 mps 593 mmHg 92%
    21:00 +13°C° 0.4 mm 1 mps 593 mmHg 92%
    22:00 +13°C° 0.2 mm 1 mps 593 mmHg 91%
    23:00 +13°C° 0.2 mm 1 mps 593 mmHg 90%

    22 October, Sunday

    Time Temperature Precipitation Wind Pressure Humidity
    00:00 +13°C° 0.2 mm 1 mps 592 mmHg 89%
    01:00 +13°C° 0 mm 1 mps 592 mmHg 88%
    02:00 +13°C° 0 mm 1 mps 592 mmHg 86%
    03:00 +13°C° 0 mm 1 mps 592 mmHg 84%
    04:00 +13°C° 0 mm 1 mps 592 mmHg 83%
    05:00 +13°C° 0 mm 1 mps 592 mmHg 82%
    06:00 +13°C° 0 mm 1 mps 592 mmHg 81%
    07:00 +15°C° 0 mm 1 mps 594 mmHg 75%
    08:00 +18°C° 0 mm 1 mps 595 mmHg 69%
    09:00 +20°C° 0 mm 1 mps 596 mmHg 63%
    10:00 +21°C° 0.1 mm 1 mps 596 mmHg 62%
    11:00 +21°C° 0.1 mm 2 mps 596 mmHg 62%
    12:00 +21°C° 0.1 mm 2 mps 595 mmHg 61%
    13:00 +21°C° 0.9 mm 2 mps 595 mmHg 66%
    14:00 +20°C° 0.9 mm 2 mps 594 mmHg 71%
    15:00 +20°C° 0.9 mm 2 mps 593 mmHg 75%
    16:00 +18°C° 1.4 mm 2 mps 593 mmHg 81%
    17:00 +18°C° 1.4 mm 1 mps 593 mmHg 86%
    18:00 +15°C° 1.4 mm 1 mps 592 mmHg 92%
    19:00 +15°C° 0.7 mm 1 mps 593 mmHg 92%
    20:00 +14°C° 0.7 mm 1 mps 593 mmHg 93%
    21:00 +14°C° 0.7 mm 1 mps 593 mmHg 94%
    22:00 +13°C° 0.3 mm 1 mps 593 mmHg 93%
    23:00 +13°C° 0.3 mm 1 mps 593 mmHg 92%
    Show more